Change the Weather History Date:

Wednesday, August 6, 2014

  Actual Average Record
Temperature  
Mean Temperature 85 °F 82 °F  
Max Temperature 98 °F 92 °F 100 °F (2007)
Min Temperature 72 °F 72 °F 62 °F (1948)
Cooling Degree Days 20 17  
Month to date cooling degree days 107 102  
Year to date cooling degree days 1453 1381  
Since 1 June cooling degree days 1087 1042  
Growing Degree Days 35 (Base 50)    
Moisture  
Dew Point 69 °F    
Average Humidity 64    
Maximum Humidity 93    
Minimum Humidity 35    
Precipitation  
Precipitation 0.00 in 0.13 in 1.93 in (1951)
Month to date precipitation 0.67 0.83  
Year to date precipitation 37.01 33.58  
Sea Level Pressure  
Sea Level Pressure 30.01 in    
Wind  
Wind Speed 3 mph (SW)    
Max Wind Speed 12 mph    
Max Gust Speed 15 mph    
Visibility 10 miles    
Events      
T = Trace of Precipitation, MM = Missing Value Source: NWS Daily Summary

Daily Weather History Graph

Daily Weather History Graph

Search for Another Location

Airport or City:

Trip Planner

Search our weather history database for the weather conditions in past years. The results will help you decide how hot, cold, wet, or windy it might be!

Date:

Astronomy

Aug. 06, 2014 Rise Set
Actual Time 6:03 AM CDT 7:38 PM CDT
Civil Twilight 5:37 AM CDT 8:05 PM CDT
Nautical Twilight 5:05 AM CDT 8:36 PM CDT
Astronomical Twilight 4:32 AM CDT 9:09 PM CDT
Moon 3:52 PM CDT (8/6) 1:40 AM CDT (8/6)
Length of Visible Light 14h 27m
Length of Day
13h 35m
Waxing Gibbous, 78% of the Moon is Illuminated
Aug 6
Waxing Gibbous
Aug 10
Full
Aug 17
Last Quarter
Aug 25
New
Sep 2
First Quarter

Hourly Weather History & Observations

Time (CDT) Temp. Heat Index Dew Point Humidity Pressure Visibility Wind Dir Wind Speed Gust Speed Precip Events Conditions
12:53 AM 73.9 °F - 71.1 °F 91% 30.03 in 10.0 mi Calm Calm - N/A   Clear
1:53 AM 73.9 °F - 70.0 °F 87% 30.02 in 10.0 mi Calm Calm - N/A   Clear
2:53 AM 73.0 °F - 70.0 °F 90% 30.01 in 10.0 mi Calm Calm - N/A   Clear
3:53 AM 73.0 °F - 70.0 °F 90% 30.02 in 10.0 mi Calm Calm - N/A   Clear
4:53 AM 72.0 °F - 69.1 °F 91% 30.02 in 10.0 mi SSW 3.5 mph - N/A   Clear
5:53 AM 72.0 °F - 69.1 °F 91% 30.04 in 10.0 mi SSW 3.5 mph - N/A   Clear
6:53 AM 73.9 °F - 70.0 °F 87% 30.05 in 9.0 mi Calm Calm - N/A   Clear
7:53 AM 77.0 °F - 72.0 °F 84% 30.06 in 9.0 mi Calm Calm - N/A   Clear
8:53 AM 82.0 °F 86.7 °F 72.0 °F 71% 30.06 in 10.0 mi West 4.6 mph - N/A   Clear
9:53 AM 86.0 °F 92.2 °F 72.0 °F 63% 30.06 in 10.0 mi WSW 4.6 mph - N/A   Clear
10:53 AM 90.0 °F 95.4 °F 70.0 °F 52% 30.06 in 10.0 mi Variable 3.5 mph - N/A   Clear
11:53 AM 91.4 °F 93.2 °F 64.4 °F 41% 30.05 in 10.0 mi Calm Calm - N/A   Clear
12:53 PM 93.9 °F 96.1 °F 64.9 °F 38% 30.03 in 10.0 mi Variable 4.6 mph - N/A   Clear
1:53 PM 93.2 °F 96.2 °F 66.2 °F 41% 30.01 in 10.0 mi Variable 3.5 mph - N/A   Clear
2:53 PM 97.0 °F 101.0 °F 66.9 °F 37% 29.98 in 10.0 mi NW 9.2 mph - N/A   Clear
3:53 PM 97.0 °F 99.3 °F 64.0 °F 34% 29.96 in 10.0 mi NNW 5.8 mph - N/A   Partly Cloudy
4:53 PM 97.0 °F 99.9 °F 64.9 °F 35% 29.95 in 10.0 mi West 8.1 mph - N/A   Clear
5:53 PM 96.1 °F 99.9 °F 66.9 °F 38% 29.95 in 10.0 mi NNE 6.9 mph - N/A   Mostly Cloudy
6:53 PM 91.0 °F 97.6 °F 71.1 °F 52% 29.95 in 10.0 mi Calm Calm - N/A   Clear
7:53 PM 86.0 °F 93.0 °F 73.0 °F 65% 29.96 in 10.0 mi South 4.6 mph - N/A   Clear
8:53 PM 84.9 °F 91.4 °F 73.0 °F 67% 29.97 in 10.0 mi Calm Calm - N/A   Partly Cloudy
9:53 PM 82.9 °F 88.0 °F 72.0 °F 69% 29.99 in 10.0 mi South 4.6 mph - N/A   Mostly Cloudy
10:53 PM 82.0 °F 86.7 °F 72.0 °F 71% 30.00 in 10.0 mi SSW 5.8 mph - N/A   Partly Cloudy
11:53 PM 79.0 °F - 70.0 °F 74% 30.00 in 10.0 mi SSW 5.8 mph - N/A   Clear